This is the latest recevied weather packets stored in our database for station/object KC1IUC-15. If no packets are shown the sender has not sent any weather packets the latest 10 day(s).
| Time | Temp. | Humidity | Pressure | Rain* | Wind** | Luminosity | Snow |
|---|---|---|---|---|---|---|---|
| 1777922403 | 22.78° C | 28% | 1008.2 hPa | 0 mm | - | 574 W/m² | - |
| 1777922103 | 22.78° C | 27% | 1008.2 hPa | 0 mm | - | 155 W/m² | - |
| 1777921803 | 22.22° C | 28% | 1008.6 hPa | 0 mm | - | 562 W/m² | - |
| 1777921503 | 22.78° C | 29% | 1008.2 hPa | 0 mm | - | 587 W/m² | - |
| 1777921203 | 22.78° C | 27% | 1008.6 hPa | 0 mm | - | 603 W/m² | - |
| 1777920903 | 22.78° C | 27% | 1008.6 hPa | 0 mm | - | 617 W/m² | - |
| 1777920604 | 22.22° C | 29% | 1008.9 hPa | 0 mm | - | 614 W/m² | - |
| 1777920303 | 22.22° C | 27% | 1008.6 hPa | 0 mm | - | 640 W/m² | - |
| 1777920003 | 22.78° C | 29% | 1008.6 hPa | 0 mm | - | 627 W/m² | - |
| 1777919703 | 22.22° C | 30% | 1008.6 hPa | 0 mm | - | 625 W/m² | - |
| 1777919403 | 22.22° C | 27% | 1008.9 hPa | 0 mm | - | 648 W/m² | - |
| 1777919103 | 22.22° C | 28% | 1008.9 hPa | 0 mm | - | 641 W/m² | - |
| 1777918803 | 21.67° C | 28% | 1008.9 hPa | 0 mm | - | 647 W/m² | - |
| 1777918503 | 22.22° C | 28% | 1008.9 hPa | 0 mm | - | 657 W/m² | - |
| 1777918203 | 21.67° C | 28% | 1008.9 hPa | 0 mm | - | 660 W/m² | - |
| 1777917904 | 21.67° C | 28% | 1008.9 hPa | 0 mm | - | 669 W/m² | - |
| 1777917604 | 21.67° C | 29% | 1009.3 hPa | 0 mm | - | 675 W/m² | - |
| 1777917303 | 21.67° C | 28% | 1009.3 hPa | 0 mm | - | 673 W/m² | - |
| 1777917003 | 21.11° C | 30% | 1009.3 hPa | 0 mm | - | 684 W/m² | - |
| 1777916703 | 21.11° C | 28% | 1009.6 hPa | 0 mm | - | 684 W/m² | - |
| 1777916403 | 21.67° C | 28% | 1009.3 hPa | 0 mm | - | 684 W/m² | - |
| 1777916103 | 21.67° C | 28% | 1009.6 hPa | 0 mm | - | 691 W/m² | - |
| 1777915804 | 21.67° C | 28% | 1009.6 hPa | 0 mm | - | 690 W/m² | - |
| 1777915503 | 21.11° C | 29% | 1009.6 hPa | 0 mm | - | 695 W/m² | - |
| 1777915203 | 21.11° C | 29% | 1009.6 hPa | 0 mm | - | 696 W/m² | - |
* Rain latest hour (hover to see other rain measurements)
** Current wind speed in m/s (hover to see current wind gust speed)